STARLINK-5900 (55948 NORAD) Tracking and Keplerian Element Data

This shows tracking and keplerian element data for the satellite.

Feedback or suggestion? Click here.




ElementValue
Catalog55948
NameSTARLINK-5900
Epoch Orbit839
Epoch Day126.86678836
Epoch Year2023
RAAN40.2037
Inclination69.9991
Eccentricity0.000362
Argument of Perigee267.3118
Mean Anonmoly92.7664
Mean Motion15.6993691
Decay Rate2.648E-05
L11 55948U 23037AL 23126.86678836 .00002648 00000+0 23776-4 0 9990
L22 55948 69.9991 40.2037 0003620 267.3118 92.7664 15.69936910 8394



Live tracking and technical data element details for STARLINK-5900 (NORAD 55948). STARLINK-5900 can be tracked NOW for your location showing map with azimuth and elevation plus other details from your city location.







IsCatalogInMostPopularTable: catalog: 55948, numindb: 9
Update: records affected: 1



GetName: 55948 STARLINK-5900

Hit Count: updated at: Tue, 06 Jun 2023 04:04:26 GMT